Lid_Strength_Index
10 12 14 12 11 10 11 12 12 12 10 10 8 9 7 7 8 8 8 7 6 6 5 5 5 3 3 1 1 1 1 1 1 1 2 3 3 3 4 4 5 4 3 3
12 13 10 9 9 10 10 12 12 11 8 9 10 9 8 7 7 7 8 8 7 6 6 6 5 3 3 2 1 2 1 1 1 1 1 2 3 4 4 4 4 3 3 3
13 10 8 9 9 10 11 12 12 11 10 9 10 11 9 7 7 7 7 7 7 6 6 6 5 3 3 2 2 2 1 1 1 1 1 3 4 5 5 5 5 4 3 3
12 9 9 9 10 10 13 10 10 10 13 15 10 15 11 9 8 7 6 7 7 7 6 5 5 4 3 2 1 1 1 1 1 1 1 3 4 5 6 5 5 5 3 2
10 10 10 11 10 9 10 9 11 10 13 15 15 14 12 10 10 8 7 6 6 5 6 6 5 4 3 2 2 2 1 1 1 1 1 2 4 6 7 6 6 5 4 2
9 8 9 9 8 8 8 10 11 12 13 16 15 15 15 12 9 9 7 6 5 7 5 5 4 4 3 2 2 2 2 2 1 1 1 2 5 7 6 6 6 5 4 3
10 10 9 8 9 9 11 14 17 17 16 16 13 16 14 11 10 9 9 8 7 8 4 5 4 4 3 3 3 2 2 2 1 1 1 3 5 6 6 6 6 5 4 3
13 13 10 8 9 11 12 13 16 19 18 16 13 15 13 10 8 8 8 7 7 5 6 4 4 3 4 3 3 2 3 2 2 1 1 4 6 6 6 6 6 4 3 2
13 12 8 7 7 9 11 14 12 15 16 17 15 12 10 8 7 7 7 7 7 6 6 4 3 4 4 3 3 3 4 3 2 2 2 5 6 7 7 6 6 4 3 2
10 13 8 7 7 9 11 10 14 15 18 19 16 15 13 10 9 8 8 9 8 6 6 5 4 4 3 3 3 3 3 2 2 2 3 5 6 6 6 6 6 4 3 2
10 12 11 9 10 11 11 12 13 14 15 17 17 15 10 10 9 9 8 8 8 6 6 5 4 4 3 3 3 4 5 5 3 2 2 4 5 6 6 6 5 4 3 2
9 11 13 11 9 8 10 11 12 15 15 14 15 14 8 8 8 8 8 7 7 6 5 5 4 4 4 3 4 6 6 4 2 2 2 3 5 5 7 6 5 4 3 2
9 13 15 13 11 9 11 10 11 13 14 15 16 15 9 7 8 8 8 7 6 6 6 5 5 4 4 4 5 5 4 2 2 2 3 4 5 4 5 5 5 3 2 2
7 12 13 15 12 11 12 10 10 12 15 14 14 13 10 9 8 8 8 8 7 6 5 5 5 5 4 4 4 5 4 2 2 2 3 4 4 5 5 4 4 2 2 2
9 14 13 12 11 10 11 10 10 12 12 13 12 12 11 9 8 7 8 8 7 6 7 5 5 5 4 4 4 4 4 2 2 2 3 4 4 4 3 4 3 2 2 3
10 13 12 13 10 10 12 11 10 9 10 10 11 12 9 8 7 7 7 6 6 6 6 5 5 5 4 4 3 3 3 2 2 2 4 4 3 3 2 3 3 3 3 4
11 12 14 16 11 11 14 11 10 10 9 10 13 13 9 9 8 8 7 7 7 6 5 6 5 4 4 4 3 3 3 2 2 3 3 3 3 3 3 3 3 4 5 6
11 11 12 16 14 19 11 8 8 9 10 9 10 10 9 8 7 6 6 7 7 6 5 5 6 4 4 3 3 3 3 3 3 3 3 2 3 3 4 3 4 5 6 6
9 11 14 16 17 12 11 9 10 11 12 9 10 9 8 7 7 7 6 6 7 6 5 4 4 3 3 4 3 3 3 3 4 4 4 3 3 3 4 4 5 6 6 7
8 9 13 14 18 19 13 9 7 8 14 8 8 9 8 7 12 9 7 6 7 7 5 6 4 3 4 3 3 3 3 3 4 3 3 3 3 4 4 5 6 6 6 7
12 12 14 15 16 14 9 8 7 15 14 8 7 8 8 9 8 6 6 5 6 7 6 6 6 6 5 4 5 4 4 4 3 3 3 3 4 4 5 6 7 7 7 9
13 14 15 14 17 18 7 8 11 9 7 7 6 6 7 6 6 5 6 6 6 6 5 5 6 6 5 4 4 4 4 4 4 5 5 5 5 5 6 7 7 7 8 9
14 11 14 12 13 9 7 9 6 6 7 6 6 6 6 6 6 5 5 5 5 5 5 5 6 6 4 3 4 4 5 5 6 6 6 6 6 7 7 7 7 7 8 8
10 9 13 13 11 9 8 6 6 5 6 6 5 5 5 6 5 5 5 5 5 5 5 4 5 5 4 3 4 6 6 5 6 6 7 7 7 7 7 7 7 7 7 8
9 10 12 12 9 9 8 7 6 6 5 5 5 4 5 5 5 5 6 5 5 4 4 4 4 5 4 3 3 5 6 6 6 8 8 7 8 7 7 7 6 7 6 7
10 12 13 13 9 10 8 7 6 6 6 6 5 5 4 5 5 4 5 5 4 4 4 5 4 4 3 3 4 5 6 6 7 8 8 8 8 8 7 7 7 11 9 10